Nanticoke River Seaford DE USA current weather conditions

sailwx.info

Wind from 353 at 5 knots gusting 9

Air temperature -0.8° C
Dewpoint -9.0° C

Last reported at 2019-Nov-13 04:00 UTC.
Time now 2019-Nov-13 04:36 UTC

Location: N 38°39' W 075°42'.
View on Google Maps.

See reports from other nearby stations

  
Tides and Currents Weather Stations Pressure Air Temp Water Temp Dewpoint Dewpoint Depression Visibility Wind Speed Wind Dir Waves Ship Positions
date/time (UTC)wind fromknots sea level pressurealtimeterstation pressurevisibilityair tempwater tempwave heightnotes
2019-Nov-13 04:00 353 5 gusting 9 -0.8
2019-Nov-13 03:55 356 4 gusting 7 -0.6
2019-Nov-13 03:50 011 3 gusting 10 -0.5
2019-Nov-13 03:45 015 4 gusting 10 -0.4
2019-Nov-13 03:40 348 5 gusting 9 -0.3
2019-Nov-13 03:35 349 5 gusting 10 -0.1
2019-Nov-13 03:30 355 5 gusting 12 -0.1
2019-Nov-13 03:25 348 6 gusting 10 -0.1
2019-Nov-13 03:20 349 5 gusting 9 -0.0
2019-Nov-13 03:15 348 6 gusting 8 0.0
2019-Nov-13 03:10 352 6 gusting 10 0.1
2019-Nov-13 03:05 349 7 gusting 12 0.1
2019-Nov-13 03:00 348 5 gusting 9 0.1
2019-Nov-13 02:55 342 6 gusting 11 0.1
2019-Nov-13 02:50 344 7 gusting 15 0.2
2019-Nov-13 02:45 351 6 gusting 10 0.2
2019-Nov-13 02:40 349 6 gusting 13 0.2
2019-Nov-13 02:35 357 5 gusting 10 0.2
2019-Nov-13 02:30 005 3 gusting 9 0.3
2019-Nov-13 02:25 359 3 gusting 7 0.4
2019-Nov-13 02:20 0.5
2019-Nov-13 02:15 003 5 gusting 10 0.5
2019-Nov-13 02:10 353 5 gusting 11 0.5
2019-Nov-13 02:05 354 5 gusting 12 0.6
2019-Nov-13 02:00 350 6 gusting 11 0.5
2019-Nov-13 01:55 354 6 gusting 10 0.6
2019-Nov-13 01:50 353 6 gusting 11 0.6
2019-Nov-13 01:45 358 4 gusting 7 0.6
2019-Nov-13 01:40 352 4 gusting 9 0.6
2019-Nov-13 01:35 003 3 gusting 8 0.6
2019-Nov-13 01:30 352 3 gusting 7 0.5
2019-Nov-13 01:25 343 4 gusting 7 0.5
2019-Nov-13 01:20 338 4 gusting 6 0.5
2019-Nov-13 01:15 347 3 gusting 5 0.5
2019-Nov-13 01:10 335 2 gusting 4 0.5
2019-Nov-13 01:05 345 0 gusting 3 0.6
2019-Nov-13 01:00 015 2 gusting 5 0.7
2019-Nov-13 00:55 015 2 gusting 5 0.6
2019-Nov-13 00:50 349 3 gusting 8 0.7
2019-Nov-13 00:45 358 3 gusting 6 0.7
2019-Nov-13 00:40 345 4 gusting 8 0.8
2019-Nov-13 00:35 004 3 gusting 5 0.9
2019-Nov-13 00:30 009 3 gusting 8 0.9
2019-Nov-13 00:25 015 2 gusting 4 0.8
2019-Nov-13 00:20 003 2 gusting 6 0.9
2019-Nov-13 00:15 008 4 gusting 10 0.9
2019-Nov-13 00:10 346 3 gusting 6 0.8
2019-Nov-13 00:05 347 3 gusting 5 0.8
2019-Nov-13 00:00 350 2 gusting 5 0.9
2019-Nov-12 23:55 350 3 gusting 5 0.9
2019-Nov-12 23:50 342 3 gusting 6 0.9
2019-Nov-12 23:45 345 3 gusting 6 0.9
2019-Nov-12 23:40 349 2 gusting 5 0.9
2019-Nov-12 23:35 353 3 gusting 5 1.0
2019-Nov-12 23:30 351 3 gusting 6 1.0
2019-Nov-12 23:25 348 4 gusting 7 1.0
2019-Nov-12 23:20 356 4 gusting 8 1.0
2019-Nov-12 23:15 344 2 gusting 5 1.0
2019-Nov-12 23:10 349 2 gusting 5 1.0
2019-Nov-12 23:05 359 2 gusting 5 1.0
2019-Nov-12 23:00 346 1 gusting 3 1.0
2019-Nov-12 22:55 349 1 gusting 2 1.1
2019-Nov-12 22:50 352 1 gusting 3 1.2
2019-Nov-12 22:45 350 2 gusting 4 1.3
2019-Nov-12 22:40 358 2 gusting 5 1.5
2019-Nov-12 22:35 014 2 gusting 5 1.4
2019-Nov-12 22:30 004 2 gusting 5 1.5
2019-Nov-12 22:25 356 3 gusting 7 1.6
2019-Nov-12 22:20 010 2 gusting 4 1.6
2019-Nov-12 22:15 006 1 gusting 4 1.7
2019-Nov-12 22:10 356 3 gusting 8 1.9
2019-Nov-12 22:05 357 4 gusting 8 2.0
2019-Nov-12 22:00 345 6 gusting 10 2.1
2019-Nov-12 21:55 353 5 gusting 8 2.1
2019-Nov-12 21:50 347 6 gusting 11 2.2
2019-Nov-12 21:45 344 7 gusting 12 2.2
2019-Nov-12 21:40 350 6 gusting 13 2.2
2019-Nov-12 21:35 348 4 gusting 7 2.2
2019-Nov-12 21:30 353 5 gusting 10 2.3
2019-Nov-12 21:25 345 6 gusting 10 2.3
2019-Nov-12 21:20 347 7 gusting 12 2.4
2019-Nov-12 21:15 344 7 gusting 13 2.4
2019-Nov-12 21:10 349 6 gusting 9 2.4
2019-Nov-12 21:05 352 6 gusting 10 2.4
2019-Nov-12 21:00 347 5 gusting 10 2.2
2019-Nov-12 20:55 343 5 gusting 8 2.3
2019-Nov-12 20:50 346 7 gusting 10 2.3
2019-Nov-12 20:45 348 6 gusting 10 2.2
2019-Nov-12 20:40 346 6 gusting 9 2.1
2019-Nov-12 20:35 351 4 gusting 8 1.9
2019-Nov-12 20:30 352 4 gusting 8 1.9
2019-Nov-12 20:25 346 5 gusting 8 2.0
2019-Nov-12 20:20 350 10 gusting 20 1.9
2019-Nov-12 20:15 343 10 gusting 18 1.6
2019-Nov-12 20:10 337 11 gusting 20 1.6
2019-Nov-12 20:05 340 9 gusting 13 1.5
2019-Nov-12 20:00 336 8 gusting 16 1.4
2019-Nov-12 19:55 340 6 gusting 11 1.2
2019-Nov-12 19:50 340 8 gusting 14 1.0
2019-Nov-12 19:45 334 8 gusting 14 0.8
2019-Nov-12 19:40 339 7 gusting 12 0.6
2019-Nov-12 19:35 347 5 gusting 9 0.5
2019-Nov-12 19:30 336 6 gusting 10 0.4
2019-Nov-12 19:25 330 7 gusting 11 0.4
2019-Nov-12 19:20 335 8 gusting 12 0.4
2019-Nov-12 19:15 337 9 gusting 12 0.4
2019-Nov-12 19:10 343 8 gusting 13 0.5
2019-Nov-12 19:05 339 9 gusting 16 0.5
2019-Nov-12 19:00 330 8 gusting 15 0.3
2019-Nov-12 18:55 336 6 gusting 11 0.3
2019-Nov-12 18:50 334 5 gusting 8 0.4
2019-Nov-12 18:45 337 6 gusting 9 0.5
2019-Nov-12 18:40 334 7 gusting 10 0.6
2019-Nov-12 18:35 328 9 gusting 13 0.7
2019-Nov-12 18:30 326 10 gusting 14 0.8
2019-Nov-12 18:25 323 12 gusting 16 0.8
2019-Nov-12 18:20 323 12 gusting 16 0.8
2019-Nov-12 18:15 332 9 gusting 13 0.9
2019-Nov-12 18:10 340 7 gusting 13 1.1
2019-Nov-12 18:05 346 7 gusting 12 1.3
2019-Nov-12 18:00 342 7 gusting 12 1.4
2019-Nov-12 17:55 336 6 gusting 10 1.5
2019-Nov-12 17:50 342 8 gusting 14 1.6
2019-Nov-12 17:45 337 11 gusting 15 1.7
2019-Nov-12 17:40 333 13 gusting 18 1.9
2019-Nov-12 17:35 336 13 gusting 20 2.1
2019-Nov-12 17:30 324 15 gusting 21 2.4
2019-Nov-12 17:25 329 14 gusting 20 2.9
2019-Nov-12 17:20 335 11 gusting 15 3.2
2019-Nov-12 17:15 334 12 gusting 17 3.4
2019-Nov-12 17:10 331 11 gusting 15 3.5
2019-Nov-12 17:05 327 11 gusting 16 3.5
2019-Nov-12 17:00 332 12 gusting 17 3.7
2019-Nov-12 16:55 332 13 gusting 18 3.8
2019-Nov-12 16:50 320 14 gusting 20 3.9
2019-Nov-12 16:45 320 13 gusting 17 4.2
2019-Nov-12 16:40 318 11 gusting 18 4.4
2019-Nov-12 16:35 319 11 gusting 18 4.6
2019-Nov-12 16:30 319 12 gusting 17 4.7
2019-Nov-12 16:25 322 12 gusting 17 4.8
2019-Nov-12 16:20 321 13 gusting 18 4.9
2019-Nov-12 16:15 320 13 gusting 18 5.0
2019-Nov-12 16:10 330 11 gusting 17 5.0
2019-Nov-12 16:05 327 10 gusting 14 5.2
2019-Nov-12 16:00 331 14 gusting 21 5.3
2019-Nov-12 15:55 323 14 gusting 22 5.5
2019-Nov-12 15:50 321 15 gusting 23 5.9
2019-Nov-12 15:45 326 14 gusting 19 6.3
2019-Nov-12 15:40 326 14 gusting 21 6.6
2019-Nov-12 15:35 326 12 gusting 16 6.8
2019-Nov-12 15:30 324 12 gusting 16 6.9
2019-Nov-12 15:25 324 15 gusting 22 7.0
2019-Nov-12 15:20 323 13 gusting 17 7.1
2019-Nov-12 15:15 320 11 gusting 17 7.1
2019-Nov-12 15:10 318 11 gusting 17 7.1
2019-Nov-12 15:05 320 12 gusting 16 7.2
2019-Nov-12 15:00 322 14 gusting 22 7.4
2019-Nov-12 14:55 319 15 gusting 22 7.7
2019-Nov-12 14:50 319 16 gusting 22 8.0
2019-Nov-12 14:45 318 12 gusting 20 8.2
2019-Nov-12 14:40 317 10 gusting 16 8.3
2019-Nov-12 14:35 316 10 gusting 15 8.4
2019-Nov-12 14:30 312 8 gusting 11 8.5
2019-Nov-12 14:25 313 10 gusting 14 8.7
2019-Nov-12 14:20 312 11 gusting 16 8.9
2019-Nov-12 14:15 316 15 gusting 23 9.3
2019-Nov-12 14:10 311 15 gusting 19 9.9
2019-Nov-12 14:05 295 11 gusting 18 10.6
2019-Nov-12 14:00 296 6 gusting 10 10.8
2019-Nov-12 13:55 295 5 gusting 7 10.8
2019-Nov-12 13:50 299 5 gusting 7 10.9
2019-Nov-12 13:45 306 5 gusting 8 10.9
2019-Nov-12 13:40 314 6 gusting 9 11.0
2019-Nov-12 13:35 318 8 gusting 13 11.0
2019-Nov-12 13:30 316 8 gusting 12 11.1
2019-Nov-12 13:25 311 7 gusting 12 11.2
2019-Nov-12 13:20 323 9 gusting 14 11.4
2019-Nov-12 13:15 319 8 gusting 15 11.8
2019-Nov-12 13:10 302 7 gusting 10 12.0
2019-Nov-12 13:05 288 5 gusting 8 12.1
2019-Nov-12 13:00 287 5 gusting 7 12.1
2019-Nov-12 12:55 298 4 gusting 6 12.0
2019-Nov-12 12:50 293 5 gusting 8 12.0
2019-Nov-12 12:45 287 5 gusting 7 12.2
2019-Nov-12 12:40 270 7 gusting 10 12.7
2019-Nov-12 12:35 265 6 gusting 8 12.9
2019-Nov-12 12:30 266 6 gusting 11 13.2
2019-Nov-12 12:25 266 7 gusting 10 13.4
2019-Nov-12 12:20 259 7 gusting 11 13.5
2019-Nov-12 12:15 256 5 gusting 10 13.5
2019-Nov-12 12:10 253 5 gusting 8 13.6
2019-Nov-12 12:05 253 5 gusting 8 13.6
2019-Nov-12 12:00 257 5 gusting 8 13.5
2019-Nov-12 11:55 264 4 gusting 6 13.6
2019-Nov-12 11:50 251 5 gusting 8 13.6
2019-Nov-12 11:45 244 6 gusting 8 13.6
2019-Nov-12 11:40 234 4 gusting 8 13.7
2019-Nov-12 11:35 242 5 gusting 9 13.7
2019-Nov-12 11:30 245 5 gusting 11 13.7
2019-Nov-12 11:25 245 4 gusting 8 13.7
2019-Nov-12 11:20 247 4 gusting 10 13.7
2019-Nov-12 11:15 235 4 gusting 7 13.8
2019-Nov-12 11:10 242 4 gusting 9 13.9
2019-Nov-12 11:05 260 5 gusting 7 13.9
2019-Nov-12 11:00 239 6 gusting 10 13.9
2019-Nov-12 10:55 233 6 gusting 10 13.9
2019-Nov-12 10:50 236 5 gusting 9 13.9
2019-Nov-12 10:45 235 4 gusting 7 13.9
2019-Nov-12 10:40 240 6 gusting 10 13.9
2019-Nov-12 10:35 241 6 gusting 9 14.0
2019-Nov-12 10:30 237 7 gusting 12 14.0
2019-Nov-12 10:25 242 7 gusting 11 14.0
2019-Nov-12 10:20 242 6 gusting 10 13.9
2019-Nov-12 10:15 235 7 gusting 14 14.0
2019-Nov-12 10:10 229 7 gusting 10 13.9
2019-Nov-12 10:05 227 6 gusting 11 13.8
2019-Nov-12 10:00 226 5 gusting 7 13.9
2019-Nov-12 09:55 221 6 gusting 10 13.8
2019-Nov-12 09:50 219 6 gusting 10 13.8
2019-Nov-12 09:45 219 6 gusting 11 13.8
2019-Nov-12 09:40 218 6 gusting 10 13.9
2019-Nov-12 09:35 215 6 gusting 11 13.8
2019-Nov-12 09:30 209 6 gusting 12 13.8
2019-Nov-12 09:25 211 7 gusting 10 13.8
2019-Nov-12 09:20 208 7 gusting 12 13.8
2019-Nov-12 09:15 219 6 gusting 9 13.9
2019-Nov-12 09:10 217 7 gusting 10 13.8
2019-Nov-12 09:05 222 6 gusting 10 13.9
2019-Nov-12 09:00 223 6 gusting 13 13.8
2019-Nov-12 08:55 225 6 gusting 13 13.8
2019-Nov-12 08:50 229 7 gusting 12 13.9
2019-Nov-12 08:45 218 6 gusting 9 13.9
2019-Nov-12 08:40 216 8 gusting 13 14.0
2019-Nov-12 08:35 224 7 gusting 12 13.9
2019-Nov-12 08:30 214 8 gusting 12 14.0
2019-Nov-12 08:25 219 8 gusting 14 14.1
2019-Nov-12 08:20 218 7 gusting 11 14.0
2019-Nov-12 08:15 221 7 gusting 12 14.0
2019-Nov-12 08:10 208 9 gusting 13 14.1
2019-Nov-12 08:05 207 9 gusting 16 14.2
2019-Nov-12 08:00 212 9 gusting 13 14.2
2019-Nov-12 07:55 215 8 gusting 14 14.2
2019-Nov-12 07:50 214 9 gusting 14 14.2
2019-Nov-12 07:45 214 8 gusting 14 14.3
2019-Nov-12 07:40 212 11 gusting 19 14.5
2019-Nov-12 07:35 217 11 gusting 16 14.4
2019-Nov-12 07:30 215 10 gusting 16 14.5
2019-Nov-12 07:25 216 9 gusting 18 14.5
2019-Nov-12 07:20 211 9 gusting 16 14.5
2019-Nov-12 07:15 212 9 gusting 16 14.6
2019-Nov-12 07:10 210 10 gusting 20 14.5
2019-Nov-12 07:05 210 9 gusting 14 14.4
2019-Nov-12 07:00 212 8 gusting 15 14.5
2019-Nov-12 06:55 215 8 gusting 12 14.5
2019-Nov-12 06:50 214 9 gusting 13 14.5
2019-Nov-12 06:45 215 9 gusting 17 14.6
2019-Nov-12 06:40 213 8 gusting 15 14.5
2019-Nov-12 06:35 217 8 gusting 13 14.5
2019-Nov-12 06:30 211 8 gusting 13 14.5
2019-Nov-12 06:25 212 8 gusting 14 14.5
2019-Nov-12 06:20 215 8 gusting 13 14.6
2019-Nov-12 06:15 211 8 gusting 13 14.6
2019-Nov-12 06:10 213 8 gusting 13 14.6
2019-Nov-12 06:05 213 7 gusting 13 14.6
2019-Nov-12 06:00 210 9 gusting 13 14.6
2019-Nov-12 05:55 207 8 gusting 13 14.6
2019-Nov-12 05:50 212 8 gusting 13 14.7
2019-Nov-12 05:45 212 7 gusting 13 14.7
2019-Nov-12 05:40 214 7 gusting 12 14.7
2019-Nov-12 05:35 213 9 gusting 13 14.8
2019-Nov-12 05:30 211 8 gusting 12 14.8
2019-Nov-12 05:25 213 10 gusting 19 14.8
2019-Nov-12 05:20 209 8 gusting 14 14.7
2019-Nov-12 05:15 208 9 gusting 13 14.7
2019-Nov-12 05:10 209 8 gusting 12 14.6
2019-Nov-12 05:05 205 8 gusting 13 14.6
2019-Nov-12 05:00 207 9 gusting 14 14.5
2019-Nov-12 04:55 204 8 gusting 12 14.4
2019-Nov-12 04:50 200 8 gusting 12 14.3
2019-Nov-12 04:45 202 7 gusting 12 14.3
2019-Nov-12 04:40 204 8 gusting 13 14.4
2019-Nov-12 04:35 203 8 gusting 13 14.4
2019-Nov-12 04:30 206 8 gusting 14 14.5
2019-Nov-12 04:25 209 8 gusting 14 14.6
2019-Nov-12 04:20 209 10 gusting 18 14.6
2019-Nov-12 04:15 209 7 gusting 13 14.5
2019-Nov-12 04:10 208 7 gusting 12 14.5
2019-Nov-12 04:05 207 9 gusting 13 14.6
2019-Nov-12 04:00 206 8 gusting 12 14.6
2019-Nov-12 03:55 211 7 gusting 11 14.6
2019-Nov-12 03:50 212 7 gusting 12 14.7
2019-Nov-12 03:45 212 8 gusting 14 14.7
2019-Nov-12 03:40 213 8 gusting 16 14.7
2019-Nov-12 03:35 208 7 gusting 12 14.6
2019-Nov-12 03:30 207 8 gusting 14 14.5
2019-Nov-12 03:25 209 7 gusting 12 14.6
2019-Nov-12 03:20 211 8 gusting 15 14.8
2019-Nov-12 03:15 212 10 gusting 15 14.7
2019-Nov-12 03:10 211 8 gusting 11 14.8
2019-Nov-12 03:05 212 8 gusting 13 14.8
2019-Nov-12 03:00 212 9 gusting 13 14.9
2019-Nov-12 02:55 210 8 gusting 13 14.9
2019-Nov-12 02:50 212 9 gusting 13 15.0
2019-Nov-12 02:45 216 9 gusting 14 15.0
2019-Nov-12 02:40 213 9 gusting 14 15.0
2019-Nov-12 02:35 218 9 gusting 13 15.1
2019-Nov-12 02:30 215 9 gusting 14 15.2
2019-Nov-12 02:25 215 8 gusting 15 15.0
2019-Nov-12 02:20 214 9 gusting 14 15.1
2019-Nov-12 02:15 212 8 gusting 14 15.0
2019-Nov-12 02:10 209 8 gusting 14 14.9
2019-Nov-12 02:05 204 8 gusting 13 14.6
2019-Nov-12 02:00 206 6 gusting 11 14.3
2019-Nov-12 01:55 203 6 gusting 11 14.0
2019-Nov-12 01:50 199 6 gusting 10 13.9
2019-Nov-12 01:45 200 6 gusting 11 13.7
2019-Nov-12 01:40 194 6 gusting 9 13.6
2019-Nov-12 01:35 200 6 gusting 10 13.5
2019-Nov-12 01:30 202 5 gusting 8 13.3
2019-Nov-12 01:25 198 5 gusting 8 13.2
2019-Nov-12 01:20 197 5 gusting 9 13.4
2019-Nov-12 01:15 201 5 gusting 10 13.1
2019-Nov-12 01:10 197 5 gusting 8 13.2
2019-Nov-12 01:05 200 5 gusting 7 13.4
2019-Nov-12 01:00 206 5 gusting 8 13.2
2019-Nov-12 00:55 206 5 gusting 9 13.2
2019-Nov-12 00:50 200 6 gusting 9 13.1
2019-Nov-12 00:45 201 6 gusting 10 13.3
2019-Nov-12 00:40 206 6 gusting 10 13.3
2019-Nov-12 00:35 197 6 gusting 10 13.3
2019-Nov-12 00:30 184 6 gusting 10 13.2
2019-Nov-12 00:25 178 6 gusting 10 13.4
2019-Nov-12 00:20 168 7 gusting 10 13.4
2019-Nov-12 00:15 165 7 gusting 10 13.6
2019-Nov-12 00:10 164 8 gusting 12 13.5
2019-Nov-12 00:05 167 7 gusting 10 13.6
2019-Nov-12 00:00 168 7 gusting 10 13.5
2019-Nov-11 23:55 171 6 gusting 9 13.6
2019-Nov-11 23:50 169 6 gusting 10 13.6
2019-Nov-11 23:45 170 6 gusting 9 13.5
2019-Nov-11 23:40 167 5 gusting 8 13.6
2019-Nov-11 23:35 175 6 gusting 10 13.8
2019-Nov-11 23:30 170 7 gusting 9 13.8
2019-Nov-11 23:25 171 6 gusting 10 13.5
2019-Nov-11 23:20 171 5 gusting 8 13.6
2019-Nov-11 23:15 170 6 gusting 8 13.7
2019-Nov-11 23:10 173 5 gusting 8 13.7
2019-Nov-11 23:05 174 6 gusting 8 14.0
2019-Nov-11 23:00 174 6 gusting 10 14.0
2019-Nov-11 22:55 176 5 gusting 8 13.8
2019-Nov-11 22:50 180 5 gusting 7 14.0
2019-Nov-11 22:45 179 5 gusting 8 14.1
2019-Nov-11 22:40 179 4 gusting 7 14.0
2019-Nov-11 22:35 186 4 gusting 8 14.1
2019-Nov-11 22:30 183 4 gusting 7 14.1
2019-Nov-11 22:25 190 4 gusting 7 14.3
2019-Nov-11 22:20 189 5 gusting 7 14.5
2019-Nov-11 22:15 181 5 gusting 7 14.7
2019-Nov-11 22:10 188 4 gusting 7 14.5
2019-Nov-11 22:05 185 4 gusting 7 14.6
2019-Nov-11 22:00 188 4 gusting 5 14.8
2019-Nov-11 21:55 193 5 gusting 8 15.2
2019-Nov-11 21:50 192 6 gusting 10 15.6
2019-Nov-11 21:45 190 6 gusting 9 15.6
2019-Nov-11 21:40 192 5 gusting 9 15.4
2019-Nov-11 21:35 197 4 gusting 6 15.5
2019-Nov-11 21:30 193 3 gusting 3 15.9
2019-Nov-11 21:25 201 4 gusting 6 16.4
2019-Nov-11 21:20 205 3 gusting 5 16.5
2019-Nov-11 21:15 201 4 gusting 6 16.6
2019-Nov-11 21:10 199 5 gusting 7 17.1
2019-Nov-11 21:05 194 6 gusting 8 17.6
2019-Nov-11 21:00 192 6 gusting 11 17.7
2019-Nov-11 20:55 180 6 gusting 12 18.1
2019-Nov-11 20:50 176 6 gusting 9 18.4
2019-Nov-11 20:45 169 7 gusting 10 18.7
2019-Nov-11 20:40 166 7 gusting 11 18.9
2019-Nov-11 20:35 160 6 gusting 9 19.1
2019-Nov-11 20:30 165 6 gusting 10 19.3
2019-Nov-11 20:25 162 7 gusting 9 19.4
2019-Nov-11 20:20 169 6 gusting 8 19.5
2019-Nov-11 20:15 173 6 gusting 9 19.5
2019-Nov-11 20:10 163 6 gusting 9 19.5
2019-Nov-11 20:05 166 7 gusting 10 19.5
2019-Nov-11 20:00 189 5 gusting 10 19.6
2019-Nov-11 19:55 187 4 gusting 6 19.6
2019-Nov-11 19:50 188 5 gusting 7 19.6
2019-Nov-11 19:45 188 4 gusting 7 19.7
2019-Nov-11 19:40 166 6 gusting 10 19.8
2019-Nov-11 19:35 165 5 gusting 9 19.7
2019-Nov-11 19:30 171 7 gusting 10 19.7
2019-Nov-11 19:25 181 7 gusting 11 19.6
2019-Nov-11 19:20 162 7 gusting 9 19.8
2019-Nov-11 19:15 183 5 gusting 9 19.6
2019-Nov-11 19:10 171 7 gusting 10 19.5
2019-Nov-11 19:05 167 8 gusting 10 19.9
2019-Nov-11 19:00 167 5 gusting 9 19.8
2019-Nov-11 18:55 177 5 gusting 8 19.4
2019-Nov-11 18:50 182 4 gusting 7 19.5
2019-Nov-11 18:45 175 4 gusting 6 19.8
2019-Nov-11 18:40 177 4 gusting 7 19.6
2019-Nov-11 18:35 181 5 gusting 6 19.2
2019-Nov-11 18:30 169 4 gusting 7 19.1
2019-Nov-11 18:25 150 5 gusting 8 19.0
2019-Nov-11 18:20 154 4 gusting 7 19.3
2019-Nov-11 18:15 167 5 gusting 8 19.1
2019-Nov-11 18:10 160 4 gusting 7 19.1
2019-Nov-11 18:05 170 4 gusting 7 19.3
2019-Nov-11 18:00 166 3 gusting 6 19.0
2019-Nov-11 17:55 169 3 gusting 6 18.5
2019-Nov-11 17:50 176 4 gusting 6 18.6
2019-Nov-11 17:45 175 2 gusting 6 18.4
2019-Nov-11 17:40 170 4 gusting 6 18.3
2019-Nov-11 17:35 164 3 gusting 6 18.2
2019-Nov-11 17:30 175 3 gusting 6 17.8
2019-Nov-11 17:25 231 2 gusting 4 17.2
2019-Nov-11 17:20 172 3 gusting 4 17.6
2019-Nov-11 17:15 169 2 gusting 4 17.6
2019-Nov-11 17:10 166 3 gusting 4 17.2
2019-Nov-11 17:05 182 3 gusting 6 17.1
2019-Nov-11 17:00 200 3 gusting 5 16.8
2019-Nov-11 16:55 205 3 gusting 5 16.4
2019-Nov-11 16:50 209 4 gusting 6 16.4
2019-Nov-11 16:45 211 4 gusting 6 16.3
2019-Nov-11 16:40 200 4 gusting 6 16.1
2019-Nov-11 16:35 180 3 gusting 6 16.1
2019-Nov-11 16:30 193 4 gusting 6 16.1
2019-Nov-11 16:25 240 3 gusting 7 15.9
2019-Nov-11 16:20 220 3 gusting 4 15.6
2019-Nov-11 16:15 245 4 gusting 6 15.2
2019-Nov-11 16:10 235 4 gusting 6 15.2
2019-Nov-11 16:05 219 3 gusting 5 15.3
2019-Nov-11 16:00 228 4 gusting 6 15.2
2019-Nov-11 15:55 200 4 gusting 7 15.0
2019-Nov-11 15:50 193 5 gusting 6 15.0
2019-Nov-11 15:45 198 5 gusting 7 14.8
2019-Nov-11 15:40 212 4 gusting 6 14.5
2019-Nov-11 15:35 207 5 gusting 7 14.6
2019-Nov-11 15:30 199 5 gusting 8 14.7
2019-Nov-11 15:25 195 4 gusting 7 14.5
2019-Nov-11 15:20 209 5 gusting 7 14.3
2019-Nov-11 15:15 194 5 gusting 8 14.4
2019-Nov-11 15:10 189 4 gusting 6 14.3
2019-Nov-11 15:05 184 4 gusting 6 14.2
2019-Nov-11 15:00 199 4 gusting 6 13.9
2019-Nov-11 14:55 215 4 gusting 6 13.5
2019-Nov-11 14:50 218 4 gusting 6 13.3
2019-Nov-11 14:45 212 4 gusting 5 13.1
2019-Nov-11 14:40 208 4 gusting 6 13.1
2019-Nov-11 14:35 208 4 gusting 6 12.9
2019-Nov-11 14:30 238 4 gusting 6 12.7
2019-Nov-11 14:25 244 4 gusting 7 12.7
2019-Nov-11 14:20 223 4 gusting 6 12.4
2019-Nov-11 14:15 215 5 gusting 7 12.1
2019-Nov-11 14:10 220 5 gusting 8 12.1
2019-Nov-11 14:05 227 6 gusting 9 12.0
2019-Nov-11 14:00 228 3 gusting 5 12.0
2019-Nov-11 13:55 222 3 gusting 5 11.9
2019-Nov-11 13:50 205 4 gusting 7 11.7
2019-Nov-11 13:45 202 2 gusting 4 11.6
2019-Nov-11 13:40 202 3 gusting 4 11.3
2019-Nov-11 13:35 199 2 gusting 4 11.0
2019-Nov-11 13:30 204 2 gusting 4 10.6
2019-Nov-11 13:25 204 3 gusting 5 10.2
2019-Nov-11 13:20 204 2 gusting 4 10.0
2019-Nov-11 13:15 194 3 gusting 4 9.7
2019-Nov-11 13:10 195 3 gusting 5 9.2
2019-Nov-11 13:05 191 3 gusting 4 9.1
2019-Nov-11 13:00 190 3 gusting 4 9.0
2019-Nov-11 12:55 191 3 gusting 4 8.9
2019-Nov-11 12:50 183 2 gusting 3 8.7
2019-Nov-11 12:45 187 1 gusting 2 8.4
2019-Nov-11 12:40 187 1 gusting 2 8.2
2019-Nov-11 12:35 180 1 gusting 2 7.7
2019-Nov-11 12:30 161 0 gusting 1 7.0
2019-Nov-11 12:25 138 0 gusting 1 6.4
2019-Nov-11 12:20 101 1 gusting 1 5.9
2019-Nov-11 12:15 107 1 gusting 2 5.6
2019-Nov-11 12:10 099 1 gusting 1 5.8
2019-Nov-11 12:05 122 1 gusting 1 6.2
2019-Nov-11 12:00 123 0 gusting 1 6.4
2019-Nov-11 11:55 131 0 gusting 0 6.3
2019-Nov-11 11:50 147 0 gusting 1 6.1
2019-Nov-11 11:45 146 0 gusting 1 5.9
2019-Nov-11 11:40 160 1 gusting 1 5.7
2019-Nov-11 11:35 189 1 gusting 2 6.2
2019-Nov-11 11:30 214 0 gusting 1 6.3
2019-Nov-11 11:25 204 2 gusting 2 6.7
2019-Nov-11 11:20 200 2 gusting 2 6.8
2019-Nov-11 11:15 204 1 gusting 2 6.8
2019-Nov-11 11:10 205 1 gusting 2 6.8
2019-Nov-11 11:05 198 1 gusting 2 6.8
2019-Nov-11 11:00 210 1 gusting 2 7.1
2019-Nov-11 10:55 219 1 gusting 1 7.2
2019-Nov-11 10:50 205 1 gusting 2 7.3
2019-Nov-11 10:45 205 1 gusting 2 7.1
2019-Nov-11 10:40 205 2 gusting 3 7.0
2019-Nov-11 10:35 203 2 gusting 4 6.6
2019-Nov-11 10:30 194 2 gusting 2 6.4
2019-Nov-11 10:25 192 2 gusting 3 6.6
2019-Nov-11 10:20 185 2 gusting 3 6.4
2019-Nov-11 10:15 186 2 gusting 3 6.4
2019-Nov-11 10:10 179 2 gusting 3 6.4
2019-Nov-11 10:05 180 2 gusting 3 6.2
2019-Nov-11 10:00 177 2 gusting 2 6.1
2019-Nov-11 09:55 169 1 gusting 2 6.5
2019-Nov-11 09:50 142 1 gusting 1 6.4
2019-Nov-11 09:45 150 1 gusting 3 6.4
2019-Nov-11 09:40 172 1 gusting 1 6.5
2019-Nov-11 09:35 171 1 gusting 2 6.4
2019-Nov-11 09:30 187 1 gusting 2 6.5
2019-Nov-11 09:25 191 2 gusting 3 6.8
2019-Nov-11 09:20 193 3 gusting 4 7.0
2019-Nov-11 09:15 191 3 gusting 4 6.9
2019-Nov-11 09:10 191 3 gusting 4 6.8
2019-Nov-11 09:05 193 2 gusting 3 6.7
2019-Nov-11 09:00 184 2 gusting 4 6.6
2019-Nov-11 08:55 187 2 gusting 3 7.0
2019-Nov-11 08:50 192 2 gusting 3 7.3
2019-Nov-11 08:45 189 2 gusting 2 7.4
2019-Nov-11 08:40 172 1 gusting 2 7.5
2019-Nov-11 08:35 158 1 gusting 2 7.6
2019-Nov-11 08:30 170 1 gusting 1 7.8
2019-Nov-11 08:25 173 2 gusting 4 7.8
2019-Nov-11 08:20 173 2 gusting 4 7.6
2019-Nov-11 08:15 171 2 gusting 5 7.7
2019-Nov-11 08:10 163 3 gusting 5 8.0
2019-Nov-11 08:05 161 3 gusting 5 7.7
2019-Nov-11 08:00 168 3 gusting 5 7.3
2019-Nov-11 07:55 177 3 gusting 5 7.6
2019-Nov-11 07:50 187 3 gusting 3 8.0
2019-Nov-11 07:45 195 2 gusting 3 8.1
2019-Nov-11 07:40 191 1 gusting 3 8.1
2019-Nov-11 07:35 165 2 gusting 4 8.2
2019-Nov-11 07:30 160 3 gusting 5 8.2
2019-Nov-11 07:25 157 3 gusting 4 8.0
2019-Nov-11 07:20 157 3 gusting 5 7.8
2019-Nov-11 07:15 162 2 gusting 3 7.6
2019-Nov-11 07:10 154 1 gusting 3 7.4
2019-Nov-11 07:05 141 1 gusting 1 7.2
2019-Nov-11 07:00 136 1 gusting 2 7.3
2019-Nov-11 06:55 129 1 gusting 2 7.1
2019-Nov-11 06:50 111 2 gusting 2 7.1
2019-Nov-11 06:45 109 1 gusting 2 7.1
2019-Nov-11 06:40 111 1 gusting 2 7.1
2019-Nov-11 06:35 126 1 gusting 1 7.3
2019-Nov-11 06:30 134 1 gusting 1 7.3
2019-Nov-11 06:25 140 1 gusting 2 7.3
2019-Nov-11 06:20 144 1 gusting 1 7.2
2019-Nov-11 06:15 125 0 gusting 1 7.1
2019-Nov-11 06:10 125 0 gusting 1 7.0
2019-Nov-11 06:05 122 0 gusting 1 7.1
2019-Nov-11 06:00 105 1 gusting 3 7.0
2019-Nov-11 05:55 107 2 gusting 2 7.1
2019-Nov-11 05:50 109 2 gusting 3 7.0
2019-Nov-11 05:45 109 2 gusting 3 7.0
2019-Nov-11 05:40 108 2 gusting 3 6.9
2019-Nov-11 05:35 109 2 gusting 3 6.8
2019-Nov-11 05:30 117 3 gusting 4 7.1
2019-Nov-11 05:25 120 2 gusting 3 7.2
2019-Nov-11 05:20 128 2 gusting 5 7.1
2019-Nov-11 05:15 120 2 gusting 3 7.0
2019-Nov-11 05:10 120 3 gusting 4 7.0
2019-Nov-11 05:05 114 3 gusting 4 6.4
2019-Nov-11 05:00 115 3 gusting 4 6.4
2019-Nov-11 04:55 116 3 gusting 4 6.4
2019-Nov-11 04:50 124 2 gusting 3 6.8
2019-Nov-11 04:45 168 2 gusting 3 7.2
2019-Nov-11 04:40 169 2 gusting 3 7.4
2019-Nov-11 04:35 172 2 gusting 3 7.4
2019-Nov-11 04:30 175 3 gusting 4 7.4
2019-Nov-11 04:25 173 2 gusting 3 7.1
2019-Nov-11 04:20 174 2 gusting 3 7.2
2019-Nov-11 04:15 183 1 gusting 2 7.2
2019-Nov-11 04:10 177 1 gusting 2 7.1
2019-Nov-11 04:05 151 1 gusting 2 7.2
2019-Nov-11 04:00 127 1 gusting 2 7.0